Regional Weather Roundup
Issued by NWS

Home | Current Version | Previous Version | Graphics & Text | Print | Product List | Glossary On
Versions: 1 2 3 4 5 6 7 8 9 10 11 12 13 14 15 16 17 18 19 20 21 22 23 24 25 26 27 28 29 30 31 32 33 34 35 36 37 38 39 40 41 42 43 44 45 46 47 48 49 50
000
ASUS43 KDMX 051004
RWRIA

WEATHER ROUNDUP FOR IOWA
NATIONAL WEATHER SERVICE DES MOINES IA
  ISSUED BY NWS QUAD CITIES IA IL
400 AM CST THU MAR 05 2015

NOTE: "FAIR" INDICATES FEW OR NO CLOUDS BELOW 12,000 FEET WITH NO
SIGNIFICANT WEATHER AND/OR OBSTRUCTIONS TO VISIBILITY.

* - THESE STATIONS ARE NOT NWS STATIONS...THUS NOT UNDER NWS
QUALITY CONTROL.  THEY ALSO DO NOT REPORT WEATHER SUCH
AS PRECIPITATION OR FOG.

IAZ001>003-012>014-020>022-031>034-043>046-051100-
   NORTHWEST IOWA

CITY           SKY/WX    TMP DP  RH WIND       PRES   REMARKS
CARROLL *      CLEAR     -4 -11  71 W6        30.46S WCI -16
CHEROKEE *     SUNNY     -7 -10  86 CALM      30.46S
DENNISON *     FAIR      -4  -9  77 CALM      30.45S
LE MARS *      CLEAR     -4  -9  77 CALM      30.48S
ORANGE CITY *  CLEAR      0  -8  71 CALM      30.43S
SHELDON *      CLEAR     -9 -15  77 CALM      30.42S
SIOUX CITY     CLEAR     -1  -7  75 CALM      30.49S
SPENCER        CLEAR     -9 -15  75 W5        30.43F WCI -20
STORM LAKE *   CLEAR     -4 -11  71 NW6       30.43S WCI -16
$$

IAZ055>058-069>071-079>083-090>094-051100-
   SOUTHWEST IOWA

CITY           SKY/WX    TMP DP  RH WIND       PRES   REMARKS
ATLANTIC *     CLEAR      1  -8  66 NW3       30.47S
AUDUBON *      CLEAR     -2  -9  71 NW3       30.45S
CLARINDA *     CLEAR      3  -4  72 N5        30.51S WCI  -6
COUNCIL BLFS * CLEAR      3  -4  72 CALM      30.47S
CRESTON *      CLEAR      0  -8  71 NW7       30.44F WCI -13
HARLAN *       FAIR      -2  -8  78 NW6       30.51S WCI -14
LAMONI         CLEAR      5  -4  66 N8        30.44S WCI  -8
RED OAK *      CLEAR      1  -4  78 NW3       30.50R
SHENANDOAH *   CLEAR      1  -4  78 CALM      30.52R
$$

IAZ047>049-059>061-072>074-084-051100-
   CENTRAL IOWA

CITY           SKY/WX    TMP DP  RH WIND       PRES   REMARKS
AMES           CLEAR     -1  -9  68 N8        30.47S WCI -15
ANKENY *       PTCLDY     1  -8  66 N3        30.48S
BOONE *        CLEAR      0  -8  71 N6        30.43F WCI -12
CHARITON *     CLOUDY     7   0  72 N10       30.45R WCI  -8
DES MOINES     PTCLDY     5  -5  63 N9        30.47F WCI  -9
GRINNELL *     SUNNY     -2  -7  80 NW5       30.45S WCI -13
KNOXVILLE *    CLOUDY     3  -9  55 N9        30.45S WCI -11
MARSHALLTOWN   CLEAR     -8 -12  83 NW8       30.44S WCI -24
NEWTON *       CLOUDY     1  -9  60 N9        30.46S WCI -14
PELLA *        PTCLDY     3  -2  78 N6        30.48S WCI  -8
PERRY *          N/A      0  -4  81 CALM      30.47S
$$

IAZ004>006-015-016-023>025-035-036-051100-
   NORTH CENTRAL IOWA

CITY           SKY/WX    TMP DP  RH WIND       PRES   REMARKS
ALGONA *       CLEAR     -2 N/A N/A NW6       30.44S WCI -14
CLARION *      CLEAR     -4  -9  77 NW6       30.44S WCI -16
ESTHERVILLE    CLEAR     -6 -12  75 W6        30.42F WCI -19
FORT DODGE *   CLEAR     -2  -9  71 CALM      30.46R
MASON CITY     CLEAR    -12 -16  82 NW8       30.43F WCI -29
FOREST CITY *  FAIR      -8 -15  71 W3        30.41F
WEBSTER CITY * CLEAR     -2  -9  71 NW7       30.44R WCI -16
IOWA FALLS *   FAIR      -9 -14  80 NW7       30.44S WCI -24
$$

IAZ007>011-017>019-026>030-037>042-050>054-066-051100-
   NORTHEAST IOWA

CITY           SKY/WX    TMP DP  RH WIND       PRES   REMARKS
CEDAR RAPIDS   CLEAR     -4 -10  75 NW7       30.43R WCI -18
CHARLES CITY * CLEAR     -8 -15  71 NW8       30.42S WCI -23
CLINTON *      FAIR      -6 -15  65 NW8       30.43R WCI -21
DECORAH *      CLEAR     -6 -13  71 NW6       30.39S WCI -18
DUBUQUE        FAIR      -2 -10  69 N7        30.37S WCI -15
MONTICELLO *   CLEAR     -8 -15  71 CALM      30.42S
OELWEIN *      CLEAR    -13 -18  77 NW8       30.42R WCI -30
WATERLOO       CLEAR     -7 -11  83 W6        30.44S WCI -20
$$

IAZ064-065-067-068-078-051100-
   EAST CENTRAL IOWA

CITY           SKY/WX    TMP DP  RH WIND       PRES   REMARKS
DAVENPORT      CLEAR      0  -8  69 NW7       30.42S WCI -13
IOWA CITY      CLEAR      2  -6  69 NW6       30.47R WCI  -9
MT. PLEASANT * CLEAR      5  -2  72 NW9       30.45S WCI  -9
MUSCATINE *    CLEAR      5  -4  66 N9        30.46F WCI  -9
QUAD CITIES    CLEAR      5  -5  63 NW8       30.43S WCI  -8
$$

IAZ062-063-075>077-085>089-095>099-051100-
   SOUTHEAST IOWA

CITY           SKY/WX    TMP DP  RH WIND       PRES   REMARKS
BURLINGTON     CLEAR      8   0  69 N8        30.44R WCI  -4
FAIRFIELD *    CLOUDY     5  -4  66 N10       30.45F WCI -10
FORT MADISON * CLEAR      7   0  72 N10       30.44R WCI  -8
KEOKUK *       CLEAR     10   1  67 N8        30.43R WCI  -1
OSKALOOSA *    FAIR       4  -4  71 N10       30.46R WCI -12
CENTERVILLE *  FLURRIES   9   5  85 N9        30.45R WCI  -5
OTTUMWA        PTCLDY     4  -5  66 N10       30.45F WCI -11
WASHINGTON *   MOCLDY     3  -2  78 NW8       30.45F WCI -10
$$

ABBREVIATIONS USED IN REMARKS
   TC - TEMPERATURES IN CELSIUS
  WCI - WIND CHILL INDEX
   HX - HEAT INDEX
  VSB - VISIBILITY
$$



USA.gov is the U.S. government's official web portal to all federal, state and local government web resources and services.